Wind_Speed
17 19 20 20 19 17 16 20 17 15 14 12 11 11 10 9 8 7 7 7 7 7 7 7 7 8 9 9 10 10 10 10 9 9 8 8 7 6 5 5 4 4 3 3 3 3 4 4 5
17 19 21 22 21 18 19 22 19 17 15 13 12 12 11 9 8 7 7 7 7 7 7 7 8 8 9 10 10 10 11 10 10 9 8 8 7 6 6 6 5 4 4 3 3 4 4 4 5
18 20 23 24 24 21 20 25 21 18 15 14 13 12 11 9 8 7 6 6 6 6 6 6 7 8 8 9 10 11 11 10 10 9 8 7 7 7 6 6 5 4 4 4 4 4 5 5 6
20 22 23 24 25 26 27 27 24 20 17 15 13 11 10 9 7 6 6 6 6 5 5 5 7 8 9 10 10 11 11 10 10 9 8 8 7 7 6 6 5 5 5 4 4 5 5 6 6
23 23 23 23 24 27 30 29 26 23 19 16 14 12 10 9 8 7 6 5 5 4 4 5 6 8 9 10 10 11 11 10 10 9 9 8 8 7 7 6 6 5 5 5 5 5 6 7 7
26 24 23 21 23 28 31 30 28 25 22 19 16 13 12 10 8 7 5 4 4 4 4 5 6 8 9 10 10 10 11 10 10 9 9 8 8 7 7 7 6 5 5 5 5 6 7 7 8
28 26 23 21 23 28 32 32 30 28 25 22 19 16 13 11 9 7 6 4 3 4 4 5 7 8 9 10 10 10 10 10 10 9 9 8 8 8 7 7 6 5 5 5 6 7 8 8 9
29 28 25 23 24 27 32 34 32 30 28 24 20 18 16 13 10 8 7 5 4 4 5 6 8 9 10 10 10 10 10 10 9 9 9 9 8 8 7 7 6 6 5 6 6 7 8 9 10
31 29 26 24 25 27 33 35 34 32 29 25 22 20 17 14 11 10 8 6 5 5 6 7 8 9 10 10 10 10 10 10 9 9 9 8 8 8 8 7 7 6 6 7 7 8 9 10 11
33 31 27 27 27 29 33 35 35 33 30 27 24 22 19 16 14 12 10 7 7 7 7 8 9 10 10 10 11 11 10 10 10 9 9 9 9 9 9 8 8 8 8 8 8 9 10 11 12
33 32 30 29 28 30 31 33 34 33 31 29 27 24 21 17 15 14 13 10 9 9 8 9 9 10 10 10 10 11 10 10 10 10 10 10 10 10 10 10 10 10 10 10 11 11 12 13 13
33 32 31 30 30 29 30 31 32 32 31 31 29 26 24 20 17 16 14 12 11 10 10 10 10 11 11 11 11 11 11 11 11 11 11 11 12 12 12 13 13 13 13 13 13 13 14 14 15
32 32 32 31 29 29 29 30 30 30 31 31 29 27 25 22 20 18 15 14 13 12 12 11 12 12 12 13 12 12 11 11 12 12 12 13 14 14 14 15 15 15 16 16 16 17 17 17 17
31 30 31 30 29 28 28 29 29 29 30 31 30 28 27 25 22 19 16 16 15 15 14 14 14 14 14 14 14 13 13 13 14 14 14 15 16 16 17 17 18 18 18 19 19 20 20 19 20
28 29 29 30 29 29 28 29 29 29 30 30 29 29 29 26 24 21 19 17 17 17 17 16 16 16 16 16 15 15 15 15 16 17 17 18 19 19 20 20 21 21 22 22 23 23 22 22 22
26 27 27 30 29 28 28 28 30 29 29 29 29 28 28 28 26 23 21 20 20 19 19 18 18 18 17 18 18 18 18 18 19 20 20 21 22 23 24 24 25 25 25 25 26 26 25 25 26
24 25 26 29 29 28 28 28 29 27 28 28 28 27 28 27 26 25 24 23 22 21 20 20 20 20 19 20 20 20 21 21 21 22 22 24 25 26 27 28 28 28 29 28 28 29 29 29 29
23 24 26 27 29 28 28 29 28 27 27 27 27 27 27 27 27 26 25 24 24 23 22 22 22 22 21 20 22 23 23 24 25 25 27 28 29 28 29 30 30 31 31 31 32 33 33 32 33
25 25 25 27 28 28 29 29 28 28 28 27 27 27 26 27 28 27 26 27 26 25 24 24 24 24 24 24 25 25 25 27 28 29 30 31 32 32 33 33 33 33 33 33 34 35 33 34 35
23 24 24 25 27 27 28 28 28 28 28 27 27 27 27 27 28 28 28 28 27 27 27 27 28 29 28 28 28 29 29 29 29 31 33 34 34 35 35 35 35 35 35 35 35 35 35 34 35
22 23 24 25 26 26 27 27 28 29 29 29 28 28 28 28 28 28 29 30 29 29 29 30 30 30 31 31 31 32 32 32 32 32 33 34 34 35 34 31 32 34 34 34 35 34 35 35 35
20 23 25 25 24 24 26 24 27 29 29 29 29 29 28 28 28 29 30 31 32 31 31 31 31 31 32 32 33 34 35 35 35 35 36 36 36 35 35 33 32 32 32 32 33 34 34 35 35
20 22 23 24 24 23 25 23 27 28 29 29 29 29 29 28 29 29 30 31 32 32 32 32 31 32 33 33 35 36 36 36 36 37 38 38 36 34 33 34 34 33 33 33 34 34 34 35 36
19 20 22 23 22 22 23 22 24 27 27 28 28 28 28 28 28 29 29 30 33 33 33 33 33 34 35 36 36 37 38 38 39 40 39 36 34 34 34 33 33 33 33 34 34 35 35 36 36
17 17 15 17 19 20 23 23 25 25 26 26 26 27 27 27 27 28 29 30 32 34 35 35 35 36 37 38 38 39 40 40 40 40 38 36 35 34 33 33 33 33 33 33 34 35 36 37 38
15 18 15 14 16 18 22 24 25 23 25 25 25 25 25 26 27 28 29 30 32 33 35 36 36 36 38 39 40 41 42 42 42 40 38 37 35 34 33 34 34 34 35 36 36 36 37 38 40
14 16 18 16 15 16 21 25 25 23 23 24 25 25 26 26 27 29 29 30 31 33 35 36 37 38 39 40 41 42 43 43 43 41 39 37 36 36 36 36 36 37 37 37 38 39 40 41 43
14 14 16 16 14 16 20 23 24 23 24 24 25 26 27 28 28 29 30 31 32 33 34 36 37 39 40 41 42 42 43 43 42 42 40 38 37 36 37 38 38 39 40 40 41 43 42 44 46
13 14 16 16 16 14 16 22 24 23 24 25 26 27 28 29 30 31 31 31 32 33 35 36 37 39 39 39 39 40 42 42 41 41 40 40 39 39 39 40 40 40 41 42 43 44 45 47 49
13 15 16 15 17 17 16 21 21 23 24 24 25 26 28 29 30 31 32 32 33 34 35 36 37 38 38 39 39 40 40 39 39 39 39 39 39 39 41 41 42 43 43 44 45 46 48 49 51
Wind_Direction
238 231 227 224 223 224 227 235 234 237 237 232 228 222 218 219 227 233 249 248 244 240 231 223 217 212 210 213 217 222 221 218 215 210 207 207 207 206 207 206 207 210 214 218 223 236 246 251 256
241 235 229 225 222 220 232 236 235 237 239 237 233 226 220 226 230 234 244 247 249 243 236 227 218 213 208 211 215 218 220 220 216 212 210 209 207 207 209 210 210 214 220 227 234 244 250 255 260
244 238 231 227 225 218 228 236 236 237 238 236 233 227 225 227 236 237 246 245 249 246 236 225 216 211 207 209 212 214 215 214 213 211 209 207 205 205 209 212 213 217 224 231 240 251 257 262 266
245 241 236 233 230 225 226 234 235 235 236 236 235 232 234 239 240 243 252 249 248 247 235 223 212 205 203 205 207 207 207 206 205 204 203 201 201 206 210 213 216 221 230 237 247 258 265 267 270
244 242 240 238 232 229 232 235 235 235 235 234 233 236 243 246 250 254 256 259 251 245 234 220 210 204 201 199 199 200 200 200 199 200 201 202 204 210 214 218 221 226 235 244 253 264 271 274 275
243 244 243 241 235 231 232 235 235 235 232 230 230 236 243 245 248 255 261 261 250 243 231 214 206 202 199 196 196 197 197 197 197 200 203 205 209 213 219 223 224 230 240 248 256 267 275 282 283
241 243 243 240 233 230 231 234 233 233 232 230 230 233 240 242 247 254 254 257 250 239 231 218 209 204 201 200 198 197 198 198 198 201 205 211 216 221 225 228 228 234 243 255 266 275 283 288 289
239 240 240 237 232 228 229 232 233 232 230 232 230 230 238 243 249 254 249 249 251 239 228 219 212 208 205 204 202 198 198 199 202 205 211 217 222 225 228 232 235 241 250 262 271 279 286 289 292
236 237 237 236 232 226 227 230 233 234 232 232 231 233 236 241 246 247 246 246 252 244 230 220 214 209 207 205 202 201 203 205 209 213 216 221 227 231 235 240 244 250 258 265 272 276 283 289 294
235 235 234 233 231 226 227 229 232 232 231 231 231 235 234 237 242 244 244 246 252 249 235 219 212 208 206 204 204 206 209 211 216 220 224 229 234 238 242 248 252 256 263 269 272 275 281 287 292
235 234 232 232 231 228 228 230 232 233 231 230 230 234 233 233 238 242 245 246 250 247 233 220 210 208 207 207 208 211 215 218 223 228 233 239 244 246 249 253 258 262 268 271 272 276 280 285 290
234 233 232 231 230 229 228 230 232 233 231 231 231 234 235 233 236 241 243 244 246 242 232 223 216 214 214 214 216 220 223 227 232 237 242 246 249 251 254 256 261 265 269 271 272 275 279 284 287
232 232 231 231 231 230 230 231 233 233 231 232 233 234 234 232 235 237 237 240 244 241 234 229 224 223 222 220 223 226 230 235 239 245 249 250 252 255 258 261 263 265 269 271 272 274 276 281 284
231 232 232 231 232 232 231 232 233 233 232 232 232 233 233 234 234 234 236 241 244 241 237 234 231 229 227 227 229 231 234 238 242 248 253 255 257 261 263 264 265 266 268 271 272 274 275 278 280
230 231 231 231 231 230 230 231 233 232 232 232 231 230 231 234 234 233 235 239 241 241 239 237 234 232 230 231 233 236 239 244 249 253 256 258 260 261 263 265 264 265 267 269 272 273 274 277 278
228 229 229 229 229 229 227 229 231 231 231 232 231 230 229 233 234 234 235 238 240 241 241 239 236 231 231 232 234 238 242 248 253 257 259 260 262 263 263 264 264 265 267 269 270 271 274 276 277
224 226 227 228 227 227 224 226 229 228 230 231 232 230 231 235 233 233 235 236 238 241 242 242 239 234 235 236 239 244 247 250 254 258 261 262 264 265 264 263 265 266 268 269 270 271 272 274 276
222 223 225 226 226 225 224 227 228 227 227 228 229 230 231 234 233 234 236 237 237 239 241 242 243 242 242 243 246 248 250 252 256 259 262 265 264 266 267 266 266 268 269 270 270 269 270 273 275
221 220 222 224 224 225 225 226 227 227 227 226 228 229 230 233 234 233 236 237 238 241 243 244 246 248 249 248 248 250 251 254 258 261 264 265 266 266 267 268 269 271 271 271 271 271 271 274 274
221 219 220 222 223 224 226 226 227 228 229 229 228 229 231 234 237 236 237 240 239 243 244 244 247 249 249 251 251 253 255 257 263 268 267 267 268 269 269 272 272 275 274 272 276 276 276 278 279
220 217 218 220 222 224 226 228 228 229 231 232 231 231 233 235 237 236 238 242 242 244 245 246 248 251 253 255 259 262 265 265 267 271 272 273 274 275 274 277 278 278 278 277 278 281 279 278 282
221 218 218 219 221 226 225 231 231 230 232 233 234 234 235 237 239 239 241 244 244 244 244 246 250 255 260 262 264 267 270 272 272 274 274 273 273 277 277 278 280 281 282 283 283 284 283 282 282
219 218 217 217 219 224 226 227 234 233 233 235 236 236 237 240 241 241 242 244 244 246 247 249 252 257 262 265 268 270 272 274 275 277 278 278 279 280 282 281 282 283 283 284 283 284 284 282 283
218 217 217 217 219 225 227 229 236 232 234 236 239 239 240 241 242 242 243 242 243 244 247 250 254 259 263 266 271 274 276 279 279 282 285 282 281 283 285 285 285 284 284 285 283 284 285 285 284
213 208 210 216 218 225 228 228 234 232 235 238 240 241 241 241 243 243 243 243 244 245 248 252 256 259 264 267 271 275 278 281 284 285 286 287 285 285 286 287 287 286 286 286 286 286 286 283 282
209 202 199 211 218 225 230 230 233 234 236 238 239 241 243 243 243 244 245 246 246 248 251 255 259 262 265 269 272 275 279 283 286 288 289 291 290 289 286 288 290 291 290 289 287 285 284 283 283
204 204 204 209 215 224 232 234 235 234 236 238 239 241 243 244 244 245 247 249 250 252 255 258 262 266 269 272 275 278 280 283 285 286 288 289 288 288 288 287 290 290 289 287 284 283 284 285 285
209 213 215 212 221 230 243 242 238 239 240 241 242 243 245 246 248 249 251 253 255 256 258 261 264 268 270 272 274 276 279 282 284 285 286 287 288 289 286 285 288 288 286 284 283 283 283 284 284
214 218 220 220 222 229 247 249 245 244 245 246 246 247 248 250 251 253 256 258 260 261 262 265 266 268 271 273 274 276 278 280 282 283 284 286 286 286 284 283 284 284 283 283 283 283 284 284 284
224 225 225 227 235 232 240 253 250 249 249 250 250 251 252 253 255 257 259 261 263 264 265 266 268 270 271 273 275 276 278 279 280 282 284 285 285 284 283 281 281 282 282 282 284 284 284 285 285
Height
5889 5891 5893 5895 5898 5900 5902 5900 5900 5901 5902 5902 5903 5904 5904 5905 5905 5907 5905 5902 5902 5902 5902 5902 5903 5903 5903 5904 5905 5905 5905 5906 5906 5906 5906 5906 5907 5907 5907 5907 5908 5908 5908 5908 5908 5908 5908 5907 5907
5886 5888 5890 5893 5895 5898 5899 5897 5898 5899 5900 5901 5902 5902 5902 5902 5902 5902 5901 5900 5900 5900 5900 5900 5901 5901 5902 5902 5903 5903 5904 5904 5904 5905 5905 5905 5905 5906 5906 5906 5907 5907 5907 5907 5907 5906 5906 5906 5906
5883 5884 5887 5889 5891 5895 5896 5894 5895 5896 5898 5899 5900 5900 5901 5901 5900 5900 5900 5899 5898 5898 5898 5898 5899 5899 5900 5901 5901 5902 5902 5903 5903 5903 5904 5904 5904 5905 5905 5905 5905 5905 5906 5906 5905 5905 5905 5905 5904
5879 5881 5883 5886 5887 5890 5891 5891 5892 5894 5896 5897 5898 5899 5899 5899 5899 5898 5898 5897 5897 5896 5896 5896 5896 5897 5898 5899 5900 5901 5901 5901 5902 5902 5902 5903 5903 5903 5904 5904 5904 5904 5905 5905 5904 5904 5904 5903 5903
5874 5877 5879 5881 5883 5885 5886 5887 5889 5891 5893 5895 5896 5897 5897 5898 5897 5897 5896 5896 5895 5895 5894 5894 5895 5896 5896 5897 5898 5899 5900 5900 5901 5901 5901 5901 5902 5902 5903 5903 5904 5904 5904 5904 5904 5903 5902 5902 5901
5870 5872 5875 5877 5879 5881 5882 5883 5886 5888 5890 5892 5894 5895 5896 5896 5896 5895 5895 5894 5894 5893 5893 5893 5893 5894 5895 5896 5897 5898 5898 5899 5899 5900 5900 5901 5901 5901 5902 5902 5902 5903 5903 5903 5903 5902 5901 5901 5900
5866 5868 5870 5873 5875 5876 5878 5878 5881 5884 5887 5889 5891 5893 5894 5894 5894 5894 5893 5893 5892 5892 5892 5892 5892 5893 5893 5894 5895 5896 5897 5898 5898 5899 5899 5900 5900 5900 5901 5901 5901 5902 5902 5902 5902 5901 5900 5899 5899
5859 5862 5865 5867 5870 5872 5873 5873 5876 5879 5882 5885 5889 5891 5892 5893 5893 5892 5892 5892 5891 5891 5891 5891 5891 5892 5892 5893 5894 5895 5895 5896 5897 5897 5898 5898 5899 5899 5900 5900 5900 5900 5901 5901 5900 5899 5899 5898 5897
5852 5857 5859 5862 5864 5867 5867 5869 5872 5874 5878 5882 5885 5887 5889 5890 5891 5891 5891 5890 5890 5890 5890 5890 5890 5890 5891 5892 5892 5893 5894 5894 5895 5896 5896 5897 5897 5898 5898 5899 5899 5899 5899 5899 5898 5898 5897 5896 5895
5846 5850 5854 5856 5858 5860 5861 5863 5866 5870 5874 5878 5881 5884 5886 5888 5889 5889 5889 5889 5889 5889 5889 5889 5889 5889 5890 5891 5891 5892 5892 5893 5894 5894 5895 5895 5896 5896 5897 5897 5897 5897 5897 5897 5896 5896 5895 5894 5893
5840 5844 5847 5849 5851 5853 5856 5858 5861 5865 5870 5874 5877 5880 5883 5885 5886 5887 5887 5887 5887 5887 5887 5887 5888 5888 5889 5889 5890 5890 5891 5891 5892 5893 5893 5894 5894 5894 5895 5895 5895 5895 5895 5894 5894 5893 5892 5891 5890
5833 5837 5840 5843 5845 5848 5851 5854 5857 5860 5865 5869 5872 5876 5879 5882 5883 5884 5885 5885 5885 5885 5886 5886 5886 5887 5887 5888 5888 5889 5889 5890 5890 5891 5891 5892 5892 5892 5893 5893 5893 5892 5892 5892 5891 5890 5890 5889 5888
5827 5830 5834 5837 5840 5844 5846 5849 5852 5856 5860 5863 5868 5872 5875 5878 5879 5881 5882 5883 5883 5884 5884 5884 5884 5885 5885 5886 5886 5887 5888 5888 5888 5889 5889 5890 5890 5890 5890 5890 5890 5890 5889 5888 5888 5887 5886 5885 5884
5821 5825 5828 5832 5835 5839 5842 5845 5848 5852 5855 5859 5863 5867 5870 5873 5876 5877 5879 5880 5880 5881 5882 5882 5882 5883 5883 5884 5884 5885 5885 5886 5886 5887 5887 5887 5887 5887 5887 5887 5887 5886 5886 5885 5884 5883 5883 5882 5881
5816 5820 5823 5827 5830 5834 5838 5841 5844 5847 5850 5854 5858 5862 5865 5869 5871 5873 5874 5876 5877 5878 5879 5879 5880 5880 5881 5881 5882 5882 5883 5883 5884 5884 5884 5884 5884 5884 5884 5884 5883 5883 5882 5881 5880 5879 5878 5877 5876
5811 5815 5818 5821 5825 5829 5835 5837 5839 5842 5846 5850 5853 5857 5860 5864 5866 5869 5870 5872 5873 5875 5875 5876 5877 5877 5878 5878 5879 5879 5880 5880 5881 5881 5880 5880 5880 5879 5879 5879 5878 5878 5877 5876 5876 5874 5874 5872 5871
5806 5810 5813 5816 5820 5824 5829 5832 5834 5838 5842 5845 5848 5852 5856 5859 5862 5864 5866 5868 5869 5871 5872 5873 5874 5874 5874 5875 5876 5876 5876 5877 5876 5876 5876 5876 5875 5875 5874 5873 5873 5872 5871 5871 5870 5869 5868 5867 5865
5801 5805 5808 5811 5814 5819 5823 5826 5829 5833 5837 5840 5844 5848 5851 5854 5857 5859 5862 5864 5865 5867 5868 5869 5870 5871 5871 5872 5872 5872 5872 5872 5872 5872 5871 5871 5870 5869 5868 5867 5866 5865 5864 5864 5863 5862 5861 5860 5858
5796 5799 5803 5806 5810 5815 5818 5821 5825 5828 5832 5835 5839 5843 5846 5849 5851 5854 5857 5859 5861 5863 5864 5866 5866 5867 5867 5867 5868 5868 5867 5867 5866 5866 5865 5865 5864 5863 5861 5860 5859 5858 5857 5856 5855 5854 5853 5851 5850
5791 5795 5798 5802 5805 5810 5813 5817 5820 5824 5827 5831 5834 5838 5841 5844 5846 5849 5852 5854 5856 5858 5859 5861 5861 5862 5862 5862 5862 5862 5862 5861 5861 5860 5859 5858 5857 5856 5855 5853 5852 5850 5849 5848 5847 5846 5845 5844 5843
5787 5791 5794 5797 5801 5805 5809 5813 5816 5819 5822 5826 5829 5832 5835 5838 5841 5844 5846 5849 5851 5853 5854 5855 5856 5856 5856 5857 5857 5857 5857 5855 5854 5853 5851 5851 5849 5849 5847 5845 5844 5843 5842 5841 5839 5838 5837 5836 5834
5783 5786 5790 5793 5798 5802 5806 5810 5811 5813 5817 5820 5824 5827 5830 5833 5836 5838 5841 5843 5845 5847 5849 5850 5850 5851 5851 5851 5851 5851 5850 5848 5847 5845 5844 5843 5842 5841 5839 5837 5836 5835 5834 5832 5832 5831 5829 5827 5826
5779 5782 5786 5790 5794 5798 5801 5806 5806 5808 5812 5815 5818 5821 5825 5827 5830 5833 5835 5837 5839 5841 5843 5844 5845 5845 5845 5845 5845 5844 5842 5841 5839 5838 5837 5836 5834 5833 5831 5830 5828 5827 5826 5825 5825 5823 5821 5819 5817
5775 5779 5783 5786 5791 5795 5798 5801 5802 5803 5806 5810 5813 5816 5819 5822 5824 5826 5829 5831 5833 5835 5837 5838 5839 5839 5839 5839 5838 5837 5835 5833 5832 5831 5829 5828 5826 5825 5823 5822 5820 5820 5819 5817 5815 5813 5812 5810 5808
5773 5778 5783 5786 5789 5792 5793 5796 5797 5799 5802 5805 5808 5811 5813 5816 5818 5820 5823 5825 5827 5829 5830 5831 5832 5833 5833 5832 5831 5830 5828 5827 5824 5823 5822 5820 5818 5817 5815 5814 5813 5812 5811 5809 5807 5805 5803 5801 5799
5770 5775 5782 5787 5789 5789 5788 5790 5792 5795 5797 5800 5803 5805 5808 5811 5813 5815 5817 5819 5820 5822 5823 5824 5825 5825 5825 5825 5824 5822 5821 5819 5817 5816 5815 5812 5810 5809 5808 5806 5805 5803 5802 5800 5798 5796 5793 5791 5788
5768 5771 5776 5780 5783 5785 5785 5785 5788 5790 5793 5795 5798 5800 5803 5805 5807 5809 5810 5812 5814 5815 5816 5817 5817 5817 5817 5816 5816 5815 5813 5812 5810 5808 5806 5804 5802 5801 5799 5797 5796 5794 5792 5790 5788 5785 5783 5780 5777
5766 5769 5772 5776 5780 5782 5782 5782 5784 5786 5789 5791 5793 5795 5797 5799 5801 5802 5804 5805 5807 5808 5808 5809 5809 5809 5809 5808 5807 5806 5805 5803 5802 5799 5797 5795 5793 5792 5790 5788 5786 5784 5782 5779 5777 5774 5771 5768 5765
5764 5767 5769 5773 5776 5779 5780 5780 5779 5781 5783 5785 5787 5789 5790 5792 5794 5795 5797 5798 5799 5799 5800 5800 5800 5800 5800 5799 5798 5797 5796 5794 5792 5790 5788 5786 5784 5783 5781 5779 5776 5774 5771 5768 5765 5762 5759 5755 5751
5762 5764 5766 5770 5771 5773 5775 5776 5774 5775 5777 5779 5780 5782 5783 5785 5786 5788 5789 5790 5790 5791 5791 5791 5791 5791 5790 5790 5788 5787 5786 5784 5783 5780 5778 5776 5775 5772 5770 5768 5766 5763 5760 5757 5754 5750 5746 5742 5738